Time,TemperatureF,DewpointF,PressureIn,WindDirection,WindDirectionDegrees,WindSpeedMPH,WindSpeedGustMPH,Humidity,HourlyPrecipIn,Conditions,Clouds,dailyrainin,SoftwareType,DateUTC
2013-04-26 00:02:00,55.0,26.0,30.13,SSW,206,5.0,11.0,32,0.00,,,0.00,,2013-04-26 05:02:00,
2013-04-26 00:12:00,55.0,26.0,30.13,SSW,206,5.0,11.0,32,0.00,,,0.00,,2013-04-26 05:12:00,
2013-04-26 00:22:00,55.0,26.0,30.13,SW,216,7.0,10.0,33,0.00,,,0.00,,2013-04-26 05:22:00,
2013-04-26 00:32:00,54.0,27.0,30.13,SSW,207,6.0,11.0,35,0.00,,,0.00,,2013-04-26 05:32:00,
2013-04-26 00:42:00,54.0,27.0,30.13,SSW,207,6.0,11.0,35,0.00,,,0.00,,2013-04-26 05:42:00,
2013-04-26 00:52:00,54.0,27.0,30.13,SSW,207,6.0,11.0,35,0.00,,,0.00,,2013-04-26 05:52:00,
2013-04-26 01:02:00,54.0,28.0,30.13,SW,226,6.0,10.0,36,0.00,,,0.00,,2013-04-26 06:02:00,
2013-04-26 01:11:00,54.0,28.0,30.13,SW,226,6.0,10.0,36,0.00,,,0.00,,2013-04-26 06:11:00,
2013-04-26 01:21:00,54.0,28.0,30.13,SW,226,6.0,10.0,36,0.00,,,0.00,,2013-04-26 06:21:00,
2013-04-26 01:32:00,54.0,28.0,30.13,WSW,243,7.0,8.0,36,0.00,,,0.00,,2013-04-26 06:32:00,
2013-04-26 01:42:00,54.0,28.0,30.13,WSW,243,7.0,8.0,36,0.00,,,0.00,,2013-04-26 06:42:00,
2013-04-26 01:52:00,54.0,28.0,30.13,WSW,243,7.0,8.0,36,0.00,,,0.00,,2013-04-26 06:52:00,
2013-04-26 02:01:00,54.0,28.0,30.13,West,273,3.0,9.0,37,0.00,,,0.00,,2013-04-26 07:01:00,
2013-04-26 02:11:00,54.0,28.0,30.13,West,273,3.0,9.0,37,0.00,,,0.00,,2013-04-26 07:11:00,
2013-04-26 02:22:00,54.0,28.0,30.13,SW,217,4.0,9.0,37,0.00,,,0.00,,2013-04-26 07:22:00,
2013-04-26 02:31:00,54.0,29.0,30.13,West,275,6.0,8.0,38,0.00,,,0.00,,2013-04-26 07:31:00,
2013-04-26 02:42:00,54.0,29.0,30.13,West,275,6.0,8.0,38,0.00,,,0.00,,2013-04-26 07:42:00,
2013-04-26 02:52:00,54.0,29.0,30.13,NW,306,5.0,8.0,38,0.00,,,0.00,,2013-04-26 07:52:00,
2013-04-26 03:02:00,54.0,29.0,30.13,SSW,210,6.0,9.0,38,0.00,,,0.00,,2013-04-26 08:02:00,
2013-04-26 03:11:00,54.0,29.0,30.13,SSW,210,6.0,9.0,38,0.00,,,0.00,,2013-04-26 08:11:00,
2013-04-26 03:21:00,54.0,29.0,30.13,SSW,210,6.0,9.0,38,0.00,,,0.00,,2013-04-26 08:21:00,
2013-04-26 03:32:00,53.0,29.0,30.10,SW,216,6.0,7.0,40,0.00,,,0.00,,2013-04-26 08:32:00,
2013-04-26 03:42:00,53.0,29.0,30.10,SW,216,6.0,7.0,40,0.00,,,0.00,,2013-04-26 08:42:00,
2013-04-26 03:52:00,53.0,29.0,30.10,SSW,207,6.0,9.0,40,0.00,,,0.00,,2013-04-26 08:52:00,
2013-04-26 04:01:00,53.0,30.0,30.10,WNW,287,10.0,11.0,41,0.00,,,0.00,,2013-04-26 09:01:00,
2013-04-26 04:11:00,53.0,30.0,30.10,WNW,287,10.0,11.0,41,0.00,,,0.00,,2013-04-26 09:11:00,
2013-04-26 04:21:00,53.0,30.0,30.10,West,269,3.0,9.0,41,0.00,,,0.00,,2013-04-26 09:21:00,
2013-04-26 04:33:00,53.0,31.0,30.10,West,268,3.0,9.0,42,0.00,,,0.00,,2013-04-26 09:33:00,
2013-04-26 04:42:00,53.0,31.0,30.10,West,268,3.0,9.0,42,0.00,,,0.00,,2013-04-26 09:42:00,
2013-04-26 04:53:00,53.0,31.0,30.10,SSW,213,7.0,9.0,42,0.00,,,0.00,,2013-04-26 09:53:00,
2013-04-26 05:03:00,53.0,31.0,30.07,SW,216,6.0,7.0,43,0.00,,,0.00,,2013-04-26 10:03:00,
2013-04-26 05:12:00,53.0,31.0,30.07,SW,216,6.0,7.0,43,0.00,,,0.00,,2013-04-26 10:12:00,
2013-04-26 05:23:00,53.0,31.0,30.07,SW,216,6.0,7.0,43,0.00,,,0.00,,2013-04-26 10:23:00,
2013-04-26 05:33:00,52.0,31.0,30.07,SW,216,3.0,8.0,45,0.00,,,0.00,,2013-04-26 10:33:00,
2013-04-26 05:42:00,52.0,31.0,30.07,SW,216,3.0,8.0,45,0.00,,,0.00,,2013-04-26 10:42:00,
2013-04-26 05:52:00,52.0,31.0,30.07,SW,219,3.0,7.0,45,0.00,,,0.00,,2013-04-26 10:52:00,
2013-04-26 06:02:00,52.0,31.0,30.07,SSW,210,6.0,8.0,44,0.00,,,0.00,,2013-04-26 11:02:00,
2013-04-26 06:11:00,52.0,31.0,30.07,SSW,210,6.0,8.0,44,0.00,,,0.00,,2013-04-26 11:11:00,
2013-04-26 06:22:00,52.0,31.0,30.07,SSW,210,6.0,8.0,44,0.00,,,0.00,,2013-04-26 11:22:00,
2013-04-26 06:32:00,52.0,31.0,30.07,SSW,211,5.0,8.0,44,0.00,,,0.00,,2013-04-26 11:32:00,
2013-04-26 06:41:00,52.0,31.0,30.07,SSW,211,5.0,8.0,44,0.00,,,0.00,,2013-04-26 11:41:00,
2013-04-26 06:52:00,52.0,30.0,30.07,SSW,211,2.0,9.0,43,0.00,,,0.00,,2013-04-26 11:52:00,
2013-04-26 07:01:00,52.0,30.0,30.07,WSW,253,3.0,7.0,43,0.00,,,0.00,,2013-04-26 12:01:00,
2013-04-26 07:11:00,52.0,30.0,30.07,WSW,253,3.0,7.0,43,0.00,,,0.00,,2013-04-26 12:11:00,
2013-04-26 07:21:00,52.0,30.0,30.07,West,259,6.0,7.0,43,0.00,,,0.00,,2013-04-26 12:21:00,
2013-04-26 07:32:00,52.0,30.0,30.07,West,259,6.0,7.0,43,0.00,,,0.00,,2013-04-26 12:32:00,
2013-04-26 07:41:00,52.0,30.0,30.07,West,259,6.0,7.0,43,0.00,,,0.00,,2013-04-26 12:41:00,
2013-04-26 07:52:00,53.0,30.0,30.10,West,265,6.0,10.0,41,0.00,,,0.00,,2013-04-26 12:52:00,
2013-04-26 08:01:00,54.0,30.0,30.10,West,268,7.0,12.0,40,0.00,,,0.00,,2013-04-26 13:01:00,
2013-04-26 08:11:00,54.0,30.0,30.10,West,268,7.0,12.0,40,0.00,,,0.00,,2013-04-26 13:11:00,
2013-04-26 08:21:00,55.0,31.0,30.10,West,263,6.0,10.0,39,0.00,,,0.00,,2013-04-26 13:21:00,
2013-04-26 08:32:00,55.0,31.0,30.10,West,263,6.0,10.0,39,0.00,,,0.00,,2013-04-26 13:32:00,
2013-04-26 08:41:00,55.0,31.0,30.10,West,263,6.0,10.0,39,0.00,,,0.00,,2013-04-26 13:41:00,
2013-04-26 08:52:00,56.0,31.0,30.10,West,270,9.0,16.0,39,0.00,,,0.00,,2013-04-26 13:52:00,
2013-04-26 09:01:00,57.0,32.0,30.10,West,267,12.0,17.0,38,0.00,,,0.00,,2013-04-26 14:01:00,
2013-04-26 09:11:00,57.0,32.0,30.10,West,267,12.0,17.0,38,0.00,,,0.00,,2013-04-26 14:11:00,
2013-04-26 09:21:00,57.0,32.0,30.10,West,267,12.0,17.0,38,0.00,,,0.00,,2013-04-26 14:21:00,
2013-04-26 09:32:00,59.0,32.0,30.10,WSW,257,10.0,18.0,36,0.00,,,0.00,,2013-04-26 14:32:00,
2013-04-26 09:41:00,59.0,32.0,30.10,WSW,257,10.0,18.0,36,0.00,,,0.00,,2013-04-26 14:41:00,
2013-04-26 09:52:00,59.0,32.0,30.10,WSW,257,10.0,18.0,36,0.00,,,0.00,,2013-04-26 14:52:00,
2013-04-26 10:01:00,59.0,32.0,30.10,WSW,257,10.0,18.0,36,0.00,,,0.00,,2013-04-26 15:01:00,
2013-04-26 10:21:00,61.0,32.0,30.10,West,267,13.0,20.0,34,0.00,,,0.00,,2013-04-26 15:21:00,
2013-04-26 10:33:00,62.0,34.0,30.10,West,270,14.0,20.0,35,0.00,,,0.00,,2013-04-26 15:33:00,
2013-04-26 10:43:00,62.0,34.0,30.10,West,270,14.0,20.0,35,0.00,,,0.00,,2013-04-26 15:43:00,
2013-04-26 10:53:00,62.0,34.0,30.10,West,264,8.0,24.0,35,0.00,,,0.00,,2013-04-26 15:53:00,
2013-04-26 11:03:00,62.0,34.0,30.10,West,266,12.0,18.0,35,0.00,,,0.00,,2013-04-26 16:03:00,
2013-04-26 11:12:00,62.0,34.0,30.10,West,266,12.0,18.0,35,0.00,,,0.00,,2013-04-26 16:12:00,
2013-04-26 11:23:00,62.0,34.0,30.10,West,266,12.0,18.0,35,0.00,,,0.00,,2013-04-26 16:23:00,
2013-04-26 11:33:00,62.0,35.0,30.10,WNW,295,12.0,20.0,36,0.00,,,0.00,,2013-04-26 16:33:00,
2013-04-26 11:42:00,62.0,35.0,30.10,WNW,295,12.0,20.0,36,0.00,,,0.00,,2013-04-26 16:42:00,
2013-04-26 11:53:00,63.0,36.0,30.10,WNW,284,14.0,18.0,36,0.00,,,0.00,,2013-04-26 16:53:00,
2013-04-26 12:02:00,64.0,36.0,30.10,West,266,13.0,21.0,35,0.00,,,0.00,,2013-04-26 17:02:00,
2013-04-26 12:12:00,64.0,36.0,30.10,West,266,13.0,21.0,35,0.00,,,0.00,,2013-04-26 17:12:00,
2013-04-26 12:21:00,64.0,36.0,30.10,West,266,13.0,21.0,35,0.00,,,0.00,,2013-04-26 17:21:00,
2013-04-26 12:31:00,64.0,36.0,30.13,West,262,12.0,19.0,35,0.00,,,0.00,,2013-04-26 17:31:00,
2013-04-26 12:41:00,64.0,36.0,30.13,West,262,12.0,19.0,35,0.00,,,0.00,,2013-04-26 17:41:00,
2013-04-26 12:52:00,64.0,36.0,30.13,West,262,12.0,19.0,35,0.00,,,0.00,,2013-04-26 17:52:00,
2013-04-26 13:02:00,64.0,35.0,30.13,West,266,9.0,19.0,34,0.00,,,0.00,,2013-04-26 18:02:00,
2013-04-26 13:12:00,64.0,35.0,30.13,West,266,9.0,19.0,34,0.00,,,0.00,,2013-04-26 18:12:00,
2013-04-26 13:22:00,64.0,35.0,30.13,West,266,9.0,19.0,34,0.00,,,0.00,,2013-04-26 18:22:00,
2013-04-26 13:33:00,64.0,36.0,30.13,WNW,296,6.0,16.0,35,0.00,,,0.00,,2013-04-26 18:33:00,
2013-04-26 13:42:00,64.0,36.0,30.13,WNW,296,6.0,16.0,35,0.00,,,0.00,,2013-04-26 18:42:00,
2013-04-26 13:52:00,64.0,36.0,30.10,SSW,210,10.0,16.0,35,0.00,,,0.00,,2013-04-26 18:52:00,
2013-04-26 14:01:00,64.0,36.0,30.10,WSW,258,10.0,17.0,35,0.00,,,0.00,,2013-04-26 19:01:00,
2013-04-26 14:11:00,64.0,36.0,30.10,WSW,258,10.0,17.0,35,0.00,,,0.00,,2013-04-26 19:11:00,
2013-04-26 14:22:00,64.0,36.0,30.10,WSW,258,10.0,17.0,35,0.00,,,0.00,,2013-04-26 19:22:00,
2013-04-26 14:32:00,64.0,36.0,30.10,WSW,258,10.0,17.0,35,0.00,,,0.00,,2013-04-26 19:32:00,
2013-04-26 14:41:00,64.0,36.0,30.10,WSW,258,10.0,17.0,35,0.00,,,0.00,,2013-04-26 19:41:00,
2013-04-26 14:52:00,65.0,37.0,30.10,WNW,284,11.0,18.0,36,0.00,,,0.00,,2013-04-26 19:52:00,
2013-04-26 15:02:00,66.0,38.0,30.10,West,261,6.0,16.0,36,0.00,,,0.00,,2013-04-26 20:02:00,
2013-04-26 15:11:00,65.0,37.0,30.10,WSW,253,7.0,13.0,36,0.00,,,0.00,,2013-04-26 20:11:00,
2013-04-26 15:21:00,65.0,37.0,30.10,WSW,253,7.0,13.0,36,0.00,,,0.00,,2013-04-26 20:21:00,
2013-04-26 15:32:00,65.0,37.0,30.10,WSW,253,7.0,13.0,36,0.00,,,0.00,,2013-04-26 20:32:00,
2013-04-26 15:42:00,65.0,37.0,30.10,WSW,253,7.0,13.0,36,0.00,,,0.00,,2013-04-26 20:42:00,
2013-04-26 15:52:00,65.0,37.0,30.10,WNW,286,9.0,15.0,36,0.00,,,0.00,,2013-04-26 20:52:00,
2013-04-26 16:02:00,65.0,37.0,30.10,WNW,286,9.0,15.0,36,0.00,,,0.00,,2013-04-26 21:02:00,
2013-04-26 16:11:00,65.0,37.0,30.10,WNW,286,9.0,15.0,36,0.00,,,0.00,,2013-04-26 21:11:00,
2013-04-26 16:21:00,65.0,38.0,30.10,WNW,301,8.0,13.0,37,0.00,,,0.00,,2013-04-26 21:21:00,
2013-04-26 16:33:00,65.0,38.0,30.10,WNW,295,5.0,13.0,37,0.00,,,0.00,,2013-04-26 21:33:00,
2013-04-26 16:42:00,65.0,38.0,30.10,WNW,295,5.0,13.0,37,0.00,,,0.00,,2013-04-26 21:42:00,
2013-04-26 16:52:00,65.0,38.0,30.10,West,271,7.0,13.0,37,0.00,,,0.00,,2013-04-26 21:52:00,
2013-04-26 17:02:00,65.0,38.0,30.10,West,272,8.0,13.0,37,0.00,,,0.00,,2013-04-26 22:02:00,
2013-04-26 17:12:00,65.0,38.0,30.10,West,272,8.0,13.0,37,0.00,,,0.00,,2013-04-26 22:12:00,
2013-04-26 17:23:00,65.0,38.0,30.10,West,272,8.0,13.0,37,0.00,,,0.00,,2013-04-26 22:23:00,
2013-04-26 17:33:00,65.0,39.0,30.13,WNW,298,9.0,14.0,38,0.00,,,0.00,,2013-04-26 22:33:00,
2013-04-26 17:42:00,65.0,39.0,30.13,WNW,298,9.0,14.0,38,0.00,,,0.00,,2013-04-26 22:42:00,
2013-04-26 17:52:00,64.0,38.0,30.13,West,278,13.0,14.0,38,0.00,,,0.00,,2013-04-26 22:52:00,
2013-04-26 18:02:00,64.0,38.0,30.13,West,265,11.0,14.0,38,0.00,,,0.00,,2013-04-26 23:02:00,
2013-04-26 18:11:00,64.0,38.0,30.13,West,265,11.0,14.0,38,0.00,,,0.00,,2013-04-26 23:11:00,
2013-04-26 18:21:00,64.0,39.0,30.13,West,263,9.0,14.0,40,0.00,,,0.00,,2013-04-26 23:21:00,
2013-04-26 18:32:00,63.0,39.0,30.13,West,273,11.0,13.0,41,0.00,,,0.00,,2013-04-26 23:32:00,
2013-04-26 18:42:00,63.0,39.0,30.13,West,273,11.0,13.0,41,0.00,,,0.00,,2013-04-26 23:42:00,
2013-04-26 18:52:00,63.0,39.0,30.13,West,274,8.0,13.0,41,0.00,,,0.00,,2013-04-26 23:52:00,
2013-04-26 19:01:00,62.0,39.0,30.13,WNW,288,10.0,15.0,43,0.00,,,0.00,,2013-04-27 00:01:00,
2013-04-26 19:11:00,62.0,39.0,30.13,WNW,288,10.0,15.0,43,0.00,,,0.00,,2013-04-27 00:11:00,
2013-04-26 19:21:00,62.0,39.0,30.13,SW,236,7.0,13.0,43,0.00,,,0.00,,2013-04-27 00:21:00,
2013-04-26 19:32:00,62.0,40.0,30.13,West,274,7.0,14.0,44,0.00,,,0.00,,2013-04-27 00:32:00,
2013-04-26 19:41:00,62.0,40.0,30.13,West,274,7.0,14.0,44,0.00,,,0.00,,2013-04-27 00:41:00,
2013-04-26 19:51:00,61.0,40.0,30.13,West,265,10.0,15.0,45,0.00,,,0.00,,2013-04-27 00:51:00,
2013-04-26 20:01:00,60.0,39.0,30.13,West,275,3.0,11.0,45,0.00,,,0.00,,2013-04-27 01:01:00,
2013-04-26 20:12:00,60.0,39.0,30.13,West,275,3.0,11.0,45,0.00,,,0.00,,2013-04-27 01:12:00,
2013-04-26 20:21:00,60.0,39.0,30.13,West,271,3.0,10.0,46,0.00,,,0.00,,2013-04-27 01:21:00,
2013-04-26 20:32:00,59.0,40.0,30.13,West,264,0.0,8.0,49,0.00,,,0.00,,2013-04-27 01:32:00,
2013-04-26 20:42:00,59.0,40.0,30.13,West,264,0.0,8.0,49,0.00,,,0.00,,2013-04-27 01:42:00,
2013-04-26 20:52:00,58.0,39.0,30.16,WSW,256,0.0,9.0,50,0.00,,,0.00,,2013-04-27 01:52:00,
2013-04-26 21:01:00,58.0,40.0,30.16,WSW,244,5.0,10.0,52,0.00,,,0.00,,2013-04-27 02:01:00,
2013-04-26 21:11:00,58.0,40.0,30.16,WSW,244,5.0,10.0,52,0.00,,,0.00,,2013-04-27 02:11:00,
2013-04-26 21:22:00,57.0,40.0,30.16,West,275,8.0,10.0,53,0.00,,,0.00,,2013-04-27 02:22:00,
2013-04-26 21:32:00,57.0,41.0,30.16,West,260,5.0,9.0,54,0.00,,,0.00,,2013-04-27 02:32:00,
2013-04-26 21:42:00,57.0,41.0,30.16,West,260,5.0,9.0,54,0.00,,,0.00,,2013-04-27 02:42:00,
2013-04-26 21:52:00,56.0,40.0,30.16,West,269,6.0,9.0,54,0.00,,,0.00,,2013-04-27 02:52:00,
2013-04-26 22:02:00,56.0,41.0,30.16,SW,228,4.0,10.0,56,0.00,,,0.00,,2013-04-27 03:02:00,
2013-04-26 22:11:00,56.0,41.0,30.16,SW,228,4.0,10.0,56,0.00,,,0.00,,2013-04-27 03:11:00,
2013-04-26 22:22:00,56.0,41.0,30.16,WSW,257,3.0,10.0,56,0.00,,,0.00,,2013-04-27 03:22:00,
2013-04-26 22:33:00,55.0,40.0,30.16,SSW,208,3.0,8.0,56,0.00,,,0.00,,2013-04-27 03:33:00,
2013-04-26 22:42:00,55.0,40.0,30.16,SSW,208,3.0,8.0,56,0.00,,,0.00,,2013-04-27 03:42:00,
2013-04-26 22:53:00,55.0,40.0,30.16,SSW,208,3.0,8.0,56,0.00,,,0.00,,2013-04-27 03:53:00,
2013-04-26 23:02:00,55.0,40.0,30.16,SSW,208,3.0,8.0,56,0.00,,,0.00,,2013-04-27 04:02:00,
2013-04-26 23:12:00,55.0,40.0,30.16,SSW,208,3.0,8.0,56,0.00,,,0.00,,2013-04-27 04:12:00,
2013-04-26 23:33:00,54.0,40.0,30.19,West,266,2.0,6.0,59,0.00,,,0.00,,2013-04-27 04:33:00,
2013-04-26 23:43:00,54.0,40.0,30.19,West,266,2.0,6.0,59,0.00,,,0.00,,2013-04-27 04:43:00,
2013-04-26 23:53:00,54.0,40.0,30.19,West,266,2.0,6.0,59,0.00,,,0.00,,2013-04-27 04:53:00,